Вернуться в каталог

GIOVE-B

АктивенНавигацияMEO
NORAD 32781·PAYLOAD·🇪🇺 EU

Запущен Apr 27, 2008 с Baikonur Cosmodrome

Loading…

Ближайшие Пролёты (ближайшие 24 часа)

TLE

СвежийSource: Space-Track

Эпоха: Sep 11, 2026, 15:40 UTC

1 32781U 08020A   26254.65338624 -.00000071  00000-0  00000-0 0  9996
2 32781  60.0734  35.9481 0003055 251.9264 108.0248  1.65405067111870

Отслеживайте GIOVE-B в реальном времени с AllMySat

Download on the App Store